[[{"header":{"parameterUnit":"m.s-1","parameterCategory":2,"la1":30.2991,"la2":30.254,"lo1":-89.0895,"lo2":-89.0444,"dy":0.0017,"dx":0.0017,"nx":28,"ny":28,"refTime":"2025-08-06T21:00:00:Z","depth":"0","parameterNumber":2,"parameterNumberName":"U-component_of_CURRENTS"},"data":[0,0,0,0,0,0,0,0,0,0,0,0,0,0,0,0,0,0,0,0,0,0,0,0,0,0,0,0,0,0,0,0,0,0,0,0,0,0,0,0,0,0,0,0,0,0,0,0,0,0,0,0,0,0,0,0,0,0,0.3985,0.3986,0,0.4058,0.4059,0.4059,0.4057,0.4057,0.4056,0.4055,0.407,0.407,0.4071,0,0,0,0,0,0,0,0,0,0,0,0,0,0.3852,0.3854,0.3985,0.3986,0.3988,0.4058,0.4059,0.4059,0.4057,0.4057,0.4056,0.4055,0.4069,0.407,0.4071,0,0,0,0,0,0,0,0,0,0,0,0,0,0.3912,0.3854,0.3985,0.3998,0.4001,0.4058,0.4059,0.4059,0.4057,0.4057,0.4056,0.4055,0.4069,0.407,0.4072,0.4098,0,0,0.4076,0.4076,0,0,0,0,0,0,0,0,0.3908,0.3916,0.3995,0.3998,0.4,0.4051,0.4017,0.4071,0.4058,0.4031,0.4055,0.4054,0.4062,0.4064,0.4074,0.4099,0.4099,0.4076,0.4077,0.4077,0.4078,0,0,0,0,0,0,0,0.3904,0.3913,0.4009,0.3997,0.4,0.4004,0.4011,0.4027,0.4046,0.4034,0.4035,0.405,0.4062,0.4073,0.4074,0.41,0.4076,0.4077,0.4078,0.4079,0.4226,0.4229,0,0,0,0,0,0,0.3905,0.3909,0.4007,0.4012,0.3956,0.4007,0.4015,0.4032,0.4047,0.405,0.4051,0.405,0.4071,0.4072,0.4074,0.4172,0.4077,0.4079,0.408,0.4223,0.4227,0.423,0,0,0,0,0,0,0.3902,0.3913,0.4004,0.3965,0.3978,0.4011,0.403,0.4034,0.4051,0.4062,0.4063,0.4065,0.407,0.4073,0.4109,0.417,0.4079,0.4081,0.4219,0.4224,0.4228,0.4325,0,0,0,0,0,0,0.3898,0.3911,0.3923,0.3966,0.398,0.4053,0.4032,0.4037,0.4064,0.4063,0.4074,0.4074,0.4069,0.4108,0.4111,0.417,0.4082,0.4215,0.4221,0.4227,0.4318,0.4332,0.4345,0,0,0,0,0,0.3893,0.3918,0.3924,0.3936,0.3996,0.4055,0.4063,0.408,0.4066,0.4088,0.4096,0.4074,0.4147,0.4111,0.4114,0.4175,0.4212,0.422,0.4226,0.4312,0.433,0.4344,0,0,0,0,0,0,0.3864,0.3922,0.3929,0.3969,0.4015,0.4057,0.408,0.4088,0.4112,0.4108,0.4102,0.4105,0.4166,0.4157,0.4117,0.4238,0.4181,0.4189,0.4246,0.4262,0.4275,0.4305,0.4083,0,0,0,0,0,0.3865,0.3899,0.3953,0.3986,0.4011,0.4044,0.4068,0.4085,0.4114,0.4123,0.4131,0.4153,0.4199,0.4216,0.4243,0.4298,0.432,0.4345,0.4359,0.437,0.4399,0.4465,0.4487,0.4253,0.4253,0.4252,0,0,0.3862,0.3899,0.3917,0.3982,0.4014,0.4071,0.4056,0.4104,0.4151,0.4122,0.4175,0.4195,0.4224,0.4295,0.4322,0.4293,0.4455,0.4379,0.4388,0.4412,0.4475,0.4497,0.4517,0.4257,0.4256,0.4256,0,0,0.3889,0.3909,0.3955,0.4001,0.4064,0.409,0.4108,0.4159,0.4181,0.4236,0.4244,0.4306,0.4339,0.4398,0.4426,0.4532,0.4522,0.4536,0.4628,0.4691,0.4711,0.4728,0.4809,0.4832,0.4543,0.4543,0.4543,0,0.3883,0.3948,0.3977,0.4041,0.4078,0.4103,0.4162,0.4202,0.4257,0.4289,0.4262,0.4379,0.4401,0.4525,0.4576,0.4566,0.4596,0.4559,0.4708,0.4726,0.4742,0.482,0.4845,0.4548,0.4548,0.4547,0.4547,0,0.3948,0.4008,0.404,0.4124,0.4167,0.4221,0.4281,0.4324,0.4339,0.4378,0.448,0.4524,0.4591,0.4627,0.4639,0.4784,0.4769,0.4714,0.4663,0.4771,0.4847,0.4871,0.4556,0.4554,0.4553,0.4551,0,0,0.392,0.4058,0.4071,0.412,0.4212,0.4251,0.4338,0.4423,0.4495,0.4539,0.4647,0.4739,0.4752,0.4791,0.4821,0.4905,0.5063,0.4872,0.4872,0.4946,0.5223,0.5137,0.5155,0.5021,0.5025,0.5029,0.5238,0,0.3962,0.4079,0.4141,0.4243,0.4302,0.4358,0.4442,0.4519,0.4583,0.4696,0.4762,0.487,0.4816,0.4882,0.4948,0.5049,0.5128,0.5013,0.5114,0.5118,0.5022,0.518,0.4967,0.5128,0.5261,0.5265,0.5268,0,0.4003,0.4077,0.4181,0.4307,0.4338,0.4398,0.4518,0.4606,0.4764,0.4825,0.4922,0.4979,0.514,0.507,0.5246,0.5169,0.5211,0.5268,0.5274,0.5179,0.5077,0.5038,0.5166,0.502,0.5305,0.5302,0.5299,0,0.3955,0.4101,0.4172,0.4215,0.4364,0.4414,0.4487,0.4631,0.4721,0.4926,0.501,0.5158,0.5253,0.5331,0.5402,0.5347,0.5593,0.5511,0.5473,0.5468,0.5302,0.5273,0.5292,0.5635,0.5635,0.5634,0.5634,0,0.3978,0.4042,0.4152,0.42,0.4299,0.4391,0.4513,0.4632,0.4803,0.4938,0.506,0.5192,0.532,0.5445,0.549,0.5563,0.5636,0.5547,0.5531,0.5331,0.5304,0.5176,0.5112,0.5642,0.564,0.5639,0.5638,0,0.3961,0.4027,0.4128,0.4257,0.429,0.4365,0.4515,0.4613,0.4768,0.4961,0.5035,0.5254,0.5429,0.5529,0.5715,0.5662,0.5608,0.5754,0.5524,0.5476,0.5267,0.5216,0.5102,0.4954,0.5776,0.5775,0.5775,0,0.3981,0.4023,0.415,0.4206,0.4273,0.437,0.4447,0.4595,0.4697,0.4984,0.5079,0.5314,0.5455,0.5678,0.5685,0.5767,0.5593,0.5596,0.5444,0.528,0.5214,0.502,0.4888,0.5285,0.5281,0.5277,0.5274,0,0.4036,0.4066,0.4156,0.4238,0.431,0.4386,0.4492,0.4547,0.4741,0.4888,0.5098,0.5246,0.5454,0.546,0.5555,0.5563,0.5321,0.552,0.5407,0.4903,0.4639,0.4477,0.5145,0.5241,0.5245,0.5247,0.5249,0.525,0.4085,0.4139,0.4218,0.4293,0.4354,0.4379,0.4386,0.4492,0.4609,0.4768,0.4998,0.5106,0.5224,0.5326,0.531,0.5108,0.5098,0.495,0.4936,0.478,0.4519,0.5131,0.5153,0.5156,0.5158,0.516,0.5162,0,0.4131,0.4177,0.426,0.4314,0.432,0.4356,0.4398,0.4349,0.44,0.4597,0.4737,0.478,0.4799,0.4832,0.4733,0.4556,0.4341,0.4425,0.4104,0.4028,0.4636,0.4492,0.4299,0.4299,0.4299,0.43,0.43,0.43,0.4163,0.4227,0.4241,0.4243,0.4254,0.4165,0.4138,0.4095,0.4137,0.4132,0.4127,0.4211,0.4366,0.4433,0.4249,0.4143,0.3825,0.3646,0.3655,0.4087,0.4133,0.4177,0.4026,0.3739,0.3738,0.2854,0.2848,0.2843]},{"header":{"parameterUnit":"m.s-1","parameterCategory":2,"la1":30.2991,"la2":30.254,"lo1":-89.0895,"lo2":-89.0444,"dy":0.0017,"dx":0.0017,"nx":28,"ny":28,"refTime":"2025-08-06T21:00:00:Z","depth":"0","parameterNumber":3,"parameterNumberName":"V-component_of_CURRENTS"},"data":[0,0,0,0,0,0,0,0,0,0,0,0,0,0,0,0,0,0,0,0,0,0,0,0,0,0,0,0,0,0,0,0,0,0,0,0,0,0,0,0,0,0,0,0,0,0,0,0,0,0,0,0,0,0,0,0,0,0,0.027,0.027,0,0.0214,0.0213,0.0212,0.0161,0.016,0.016,0.0159,0.0051,0.0048,0.0046,0,0,0,0,0,0,0,0,0,0,0,0,0,0.0295,0.0295,0.0271,0.027,0.027,0.0214,0.0213,0.0212,0.0161,0.016,0.016,0.0159,0.0051,0.0049,0.0046,0,0,0,0,0,0,0,0,0,0,0,0,0,0.0264,0.0295,0.0271,0.0239,0.0236,0.0214,0.0213,0.0212,0.0161,0.016,0.0159,0.0159,0.0052,0.0049,0.0045,0.0035,0,0,0.0034,0.0032,0,0,0,0,0,0,0,0,0.0266,0.0263,0.0244,0.0241,0.0237,0.0196,0.0182,0.0151,0.0161,0.0187,0.0159,0.0159,0.0096,0.0089,0.0077,0.003,0.0025,0.0033,0.0031,0.0029,0.0028,0,0,0,0,0,0,0,0.0268,0.0265,0.0246,0.0244,0.024,0.0215,0.0209,0.0176,0.0143,0.0184,0.0181,0.0179,0.0094,0.0081,0.0074,0.0023,0.0033,0.003,0.0028,0.0026,-0.0064,-0.0064,0,0,0,0,0,0,0.0283,0.0268,0.0248,0.0244,0.0253,0.0215,0.0209,0.0208,0.0144,0.0135,0.0179,0.0177,0.0088,0.0079,0.007,0.0059,0.0029,0.0026,0.0024,-0.0064,-0.0064,-0.0064,0,0,0,0,0,0,0.0284,0.0282,0.025,0.0256,0.0251,0.0216,0.0214,0.0207,0.0196,0.0142,0.0131,0.0176,0.0087,0.0075,0.0044,0.0054,0.0024,0.0021,-0.0064,-0.0064,-0.0064,0.0033,0,0,0,0,0,0,0.0285,0.0282,0.0286,0.0257,0.0251,0.0244,0.0215,0.0207,0.0196,0.0192,0.0135,0.0124,0.0085,0.005,0.004,0.0048,0.0018,-0.0064,-0.0064,-0.0064,0.003,0.0036,0.0042,0,0,0,0,0,0.0286,0.03,0.0286,0.0284,0.0257,0.0245,0.024,0.021,0.0197,0.0197,0.0158,0.0126,0.0041,0.0047,0.0036,0.0043,-0.0063,-0.0064,-0.0064,0.0028,0.0035,0.0041,0,0,0,0,0,0,0.0312,0.0295,0.028,0.0287,0.0269,0.0238,0.0238,0.0218,0.0188,0.0185,0.0129,0.0116,0.009,0.005,0.0059,0.0013,-0.0019,-0.0021,0.0055,0.0061,0.0067,0.0103,0.0015,0,0,0,0,0,0.0321,0.0327,0.0302,0.0308,0.0302,0.0271,0.0262,0.0245,0.0217,0.0203,0.0163,0.0117,0.008,0.0059,0.0019,-0.0,-0.0012,-0.0008,-0.0002,0.0003,0.0023,0.0016,0.0024,-0.0065,-0.0065,-0.0065,0,0,0.0332,0.0325,0.0327,0.0314,0.0298,0.0303,0.0264,0.0261,0.0266,0.0196,0.0187,0.0138,0.0078,0.0055,0.0039,0.0024,0.0023,0.0003,0.0009,0.0025,0.0016,0.0025,0.0033,-0.0066,-0.0066,-0.0066,0,0,0.0366,0.0353,0.037,0.0362,0.0349,0.0331,0.0335,0.0307,0.0293,0.0276,0.0227,0.0187,0.0131,0.0093,0.0065,0.0076,0.0053,0.0059,0.012,0.0113,0.0121,0.0128,0.0136,0.0142,0.0062,0.0062,0.0062,0,0.038,0.0401,0.0373,0.0388,0.0394,0.035,0.0374,0.0354,0.0319,0.0319,0.0284,0.0211,0.0149,0.0133,0.0129,0.0092,0.0095,0.0104,0.0125,0.0131,0.0137,0.0142,0.0149,0.0067,0.0066,0.0066,0.0065,0,0.0424,0.0443,0.0456,0.0462,0.046,0.0477,0.045,0.0445,0.042,0.0399,0.0376,0.0296,0.0255,0.0222,0.0176,0.0184,0.0177,0.0137,0.0119,0.0153,0.0155,0.016,0.0074,0.0072,0.007,0.0069,0,0,0.0458,0.0484,0.049,0.0518,0.0508,0.052,0.0527,0.053,0.0558,0.0495,0.0529,0.0426,0.0386,0.0351,0.0287,0.0273,0.0297,0.0232,0.0229,0.0261,0.031,0.0289,0.0292,0.0274,0.0275,0.0276,0.0301,0,0.0506,0.0572,0.056,0.062,0.0657,0.0627,0.0648,0.0641,0.0624,0.0642,0.0559,0.0558,0.0435,0.0434,0.0389,0.0337,0.0315,0.0296,0.0254,0.0253,0.0247,0.0298,0.0271,0.029,0.0306,0.0306,0.0307,0,0.0555,0.0602,0.0674,0.0733,0.0744,0.0767,0.0812,0.0826,0.0822,0.0813,0.0778,0.0724,0.0684,0.0582,0.0493,0.0496,0.0407,0.0353,0.0351,0.0305,0.0241,0.0253,0.0298,0.0066,0.0314,0.0314,0.0313,0,0.0618,0.0682,0.0754,0.077,0.0817,0.0848,0.0875,0.0884,0.093,0.0942,0.0991,0.0899,0.091,0.0774,0.0625,0.0576,0.0554,0.0463,0.0356,0.0354,0.0309,0.0301,0.0142,0.0399,0.0399,0.0399,0.0399,0,0.0683,0.0743,0.0796,0.0838,0.094,0.0936,0.1036,0.1047,0.1097,0.1197,0.1093,0.1172,0.0967,0.0914,0.0721,0.058,0.0617,0.0393,0.0366,0.034,0.0335,0.011,-0.0032,0.04,0.04,0.04,0.04,0,0.0743,0.0771,0.0869,0.0943,0.0974,0.1052,0.1158,0.1232,0.1269,0.1406,0.1431,0.1415,0.1361,0.1141,0.0972,0.0748,0.045,0.0515,0.0509,0.0479,0.0124,-0.0011,-0.0173,-0.0283,0.0397,0.0397,0.0397,0,0.0785,0.0838,0.0953,0.1026,0.1067,0.1178,0.126,0.1316,0.1412,0.1572,0.1662,0.167,0.1711,0.1447,0.1068,0.0752,0.0492,0.0488,0.0354,0.0125,-0.0046,-0.0139,-0.0228,0.0336,0.0335,0.0334,0.0334,0,0.0872,0.0905,0.0987,0.1129,0.1233,0.1358,0.1487,0.1594,0.1699,0.1855,0.2062,0.2129,0.1892,0.1589,0.1131,0.0872,0.0301,0.0464,0.0226,-0.0099,-0.0208,-0.0333,0.0305,0.0329,0.0329,0.033,0.033,0.033,0.0941,0.1013,0.1108,0.1239,0.1366,0.1521,0.1651,0.1819,0.2031,0.2309,0.236,0.2538,0.2025,0.1417,0.1036,0.0277,0.0279,0.0019,-0.0117,-0.0183,-0.0325,0.0313,0.0298,0.0299,0.0299,0.0299,0.03,0,0.1014,0.1083,0.1211,0.137,0.1513,0.1564,0.1786,0.1944,0.2234,0.2541,0.2765,0.2613,0.1986,0.1303,0.0281,-0.022,-0.0421,-0.0503,-0.067,-0.0729,-0.0158,-0.02,-0.0321,-0.0321,-0.0321,-0.0321,-0.032,-0.032,0.1057,0.1167,0.1218,0.1446,0.1572,0.1778,0.1916,0.2184,0.2431,0.2812,0.296,0.3029,0.2412,0.0654,-0.0515,-0.0772,-0.1139,-0.1214,-0.1369,-0.103,-0.0992,-0.0957,-0.103,-0.1323,-0.1324,-0.1889,-0.1895,-0.19]}],[{"header":{"parameterUnit":"m.s-1","parameterCategory":2,"la1":30.2991,"la2":30.254,"lo1":-89.0895,"lo2":-89.0444,"dy":0.0017,"dx":0.0017,"nx":28,"ny":28,"refTime":"2025-08-06T21:00:00:Z","depth":"2","parameterNumber":2,"parameterNumberName":"U-component_of_CURRENTS"},"data":[0,0,0,0,0,0,0,0,0,0,0,0,0,0,0,0,0,0,0,0,0,0,0,0,0,0,0,0,0,0,0,0,0,0,0,0,0,0,0,0,0,0,0,0,0,0,0,0,0,0,0,0,0,0,0,0,0,0,0.2996,0.2997,0,0.304,0.304,0.3041,0.3073,0.3073,0.3073,0.3073,0.3079,0.3079,0.3079,0,0,0,0,0,0,0,0,0,0,0,0,0,0.292,0.2921,0.2996,0.2997,0.2997,0.3039,0.304,0.3041,0.3073,0.3073,0.3073,0.3073,0.3079,0.3079,0.3079,0,0,0,0,0,0,0,0,0,0,0,0,0,0.2958,0.2922,0.2996,0.3017,0.302,0.3039,0.304,0.3041,0.3073,0.3073,0.3073,0.3074,0.3079,0.3079,0.3079,0.3073,0,0,0.3079,0.3079,0,0,0,0,0,0,0,0,0.2956,0.2961,0.3014,0.3016,0.3018,0.305,0.3015,0.305,0.3073,0.3054,0.3073,0.3074,0.3065,0.3066,0.3076,0.3074,0.3074,0.3079,0.3079,0.3079,0.3079,0,0,0,0,0,0,0,0.2953,0.2959,0.3015,0.3014,0.3017,0.3017,0.3023,0.3022,0.3058,0.3056,0.3058,0.306,0.3066,0.3076,0.3076,0.3074,0.3079,0.3079,0.3079,0.3079,0.3176,0.3178,0,0,0,0,0,0,0.2947,0.2957,0.3013,0.3016,0.2986,0.3018,0.3025,0.3041,0.3058,0.3061,0.306,0.3062,0.3076,0.3076,0.3076,0.3146,0.3079,0.3079,0.3079,0.3173,0.3176,0.3179,0,0,0,0,0,0,0.2945,0.2952,0.3012,0.2985,0.2993,0.3019,0.3036,0.3041,0.3056,0.3062,0.3065,0.3071,0.3076,0.3076,0.3103,0.3143,0.3079,0.3079,0.317,0.3174,0.3178,0.3237,0,0,0,0,0,0,0.2943,0.2951,0.2957,0.2986,0.2994,0.3025,0.3036,0.3042,0.3057,0.3059,0.3072,0.3072,0.3076,0.3103,0.3103,0.3142,0.3079,0.3167,0.3172,0.3176,0.3232,0.3242,0.3251,0,0,0,0,0,0.294,0.2946,0.2958,0.2964,0.3003,0.3025,0.303,0.3049,0.3057,0.3064,0.309,0.3072,0.3135,0.3105,0.3104,0.3144,0.3164,0.317,0.3176,0.3227,0.324,0.3251,0,0,0,0,0,0,0.2916,0.2951,0.2964,0.2981,0.3002,0.303,0.3043,0.305,0.3076,0.3093,0.309,0.3093,0.3136,0.3133,0.31,0.3192,0.3152,0.3158,0.3192,0.3204,0.3213,0.3228,0.3079,0,0,0,0,0,0.2913,0.2934,0.296,0.2978,0.2991,0.3018,0.3028,0.305,0.3075,0.3088,0.3105,0.3133,0.3159,0.3173,0.3195,0.3229,0.3255,0.3262,0.3272,0.328,0.3296,0.3377,0.3396,0.3198,0.3198,0.3198,0,0,0.2909,0.2932,0.2942,0.2974,0.3,0.3029,0.3026,0.306,0.3095,0.3083,0.3144,0.316,0.3176,0.323,0.325,0.3232,0.3353,0.3288,0.3294,0.3306,0.3385,0.3404,0.3421,0.3202,0.3201,0.3201,0,0,0.2913,0.2936,0.2955,0.2983,0.3025,0.3043,0.3051,0.3096,0.3127,0.3175,0.3192,0.3232,0.3266,0.3299,0.3313,0.3386,0.3399,0.3402,0.3464,0.3543,0.356,0.3575,0.3639,0.3659,0.3411,0.3411,0.3411,0,0.2904,0.2943,0.2961,0.2997,0.3031,0.3049,0.3089,0.3119,0.3171,0.3214,0.3205,0.3301,0.3302,0.3376,0.3414,0.3406,0.3458,0.3411,0.3556,0.3571,0.3585,0.3647,0.3668,0.3415,0.3414,0.3414,0.3414,0,0.2927,0.2968,0.2988,0.3044,0.3075,0.3117,0.3164,0.3211,0.3247,0.3285,0.3372,0.3391,0.344,0.3462,0.3458,0.3569,0.3575,0.3552,0.352,0.3609,0.3668,0.3689,0.342,0.3419,0.3418,0.3417,0,0,0.2904,0.2983,0.3002,0.3041,0.3115,0.3144,0.322,0.3292,0.3351,0.3408,0.3492,0.3544,0.3553,0.3572,0.3579,0.3662,0.3796,0.3665,0.3667,0.3719,0.3987,0.3862,0.3872,0.3813,0.3817,0.382,0.3989,0,0.2926,0.2997,0.3039,0.3118,0.316,0.3224,0.3283,0.336,0.3425,0.351,0.3561,0.364,0.3592,0.3639,0.3697,0.3794,0.3856,0.3753,0.3901,0.3906,0.3776,0.3894,0.3595,0.3709,0.4009,0.4013,0.4015,0,0.2945,0.2999,0.307,0.3169,0.3195,0.3235,0.3358,0.3423,0.3542,0.3606,0.3684,0.3726,0.3846,0.379,0.396,0.3908,0.3943,0.4004,0.4011,0.3888,0.382,0.3671,0.3737,0.4051,0.4048,0.4045,0.4043,0,0.2926,0.3027,0.3083,0.3121,0.3221,0.3273,0.3333,0.3452,0.3534,0.3688,0.3775,0.3876,0.3967,0.4043,0.4116,0.4077,0.4309,0.4253,0.4163,0.4155,0.3923,0.3886,0.4356,0.4356,0.4355,0.4355,0.4354,0,0.2935,0.2988,0.3072,0.311,0.3192,0.3266,0.3369,0.3459,0.3591,0.3688,0.3808,0.3907,0.4049,0.4168,0.4193,0.425,0.4353,0.4206,0.4203,0.3934,0.3898,0.4201,0.4181,0.4361,0.436,0.4358,0.4357,0,0.29,0.2959,0.3031,0.314,0.3181,0.3242,0.3389,0.3444,0.3603,0.3742,0.3812,0.4006,0.4166,0.4263,0.4429,0.4355,0.4426,0.4398,0.4067,0.4019,0.4201,0.4182,0.4346,0.4343,0.4341,0.4339,0.4337,0,0.2879,0.2906,0.304,0.3077,0.3123,0.3226,0.3276,0.3437,0.3498,0.3773,0.3813,0.4056,0.4133,0.4329,0.4313,0.4351,0.4407,0.4064,0.3904,0.4226,0.4207,0.4192,0.4177,0.3636,0.3629,0.3623,0.3618,0,0.2849,0.2894,0.2955,0.3016,0.3072,0.3155,0.3239,0.3299,0.3474,0.358,0.3733,0.3851,0.4057,0.398,0.4047,0.401,0.4037,0.3941,0.4415,0.3662,0.3564,0.3542,0.355,0.3565,0.3571,0.3574,0.3577,0.3579,0.2823,0.2845,0.2902,0.294,0.3029,0.306,0.305,0.3123,0.3195,0.3304,0.351,0.3579,0.37,0.3644,0.3558,0.3507,0.3757,0.3592,0.3608,0.3631,0.3496,0.3397,0.3343,0.3347,0.335,0.3353,0.3355,0,0.2766,0.279,0.2813,0.2851,0.2856,0.2948,0.3,0.2914,0.2913,0.3059,0.3145,0.2972,0.2974,0.3093,0.2939,0.294,0.2888,0.282,0.2734,0.2792,0.2841,0.2661,0.2289,0.2285,0.2282,0.2278,0,0,0.2743,0.2703,0.2687,0.2657,0.2694,0.2679,0.2682,0.2551,0.2596,0.2534,0.2568,0.2839,0.3012,0.2604,0.257,0.2405,0.2565,0.2312,0.3181,0.3138,0.3182,0.3317,0.3109,0,0,0,0,0]},{"header":{"parameterUnit":"m.s-1","parameterCategory":2,"la1":30.2991,"la2":30.254,"lo1":-89.0895,"lo2":-89.0444,"dy":0.0017,"dx":0.0017,"nx":28,"ny":28,"refTime":"2025-08-06T21:00:00:Z","depth":"2","parameterNumber":3,"parameterNumberName":"V-component_of_CURRENTS"},"data":[0,0,0,0,0,0,0,0,0,0,0,0,0,0,0,0,0,0,0,0,0,0,0,0,0,0,0,0,0,0,0,0,0,0,0,0,0,0,0,0,0,0,0,0,0,0,0,0,0,0,0,0,0,0,0,0,0,0,0.0085,0.0085,0,0.0039,0.0038,0.0038,-0.0002,-0.0003,-0.0003,-0.0003,-0.009,-0.0092,-0.0094,0,0,0,0,0,0,0,0,0,0,0,0,0,0.0101,0.0101,0.0085,0.0085,0.0084,0.0039,0.0038,0.0038,-0.0002,-0.0003,-0.0003,-0.0004,-0.0089,-0.0091,-0.0094,0,0,0,0,0,0,0,0,0,0,0,0,0,0.0077,0.0101,0.0085,0.006,0.0057,0.0039,0.0038,0.0037,-0.0002,-0.0003,-0.0003,-0.0004,-0.0088,-0.0091,-0.0094,-0.0103,0,0,-0.0103,-0.0105,0,0,0,0,0,0,0,0,0.0079,0.0077,0.0064,0.0062,0.0059,0.0025,0.0012,-0.0011,-0.0002,0.0019,-0.0003,-0.0004,-0.0054,-0.006,-0.0069,-0.0107,-0.0111,-0.0104,-0.0105,-0.0107,-0.0107,0,0,0,0,0,0,0,0.008,0.0078,0.0065,0.0064,0.0061,0.0038,0.0034,0.0008,-0.0016,0.0017,0.0014,0.0012,-0.0056,-0.0066,-0.0071,-0.0112,-0.0103,-0.0106,-0.0108,-0.0109,-0.017,-0.017,0,0,0,0,0,0,0.0092,0.008,0.0067,0.0064,0.0069,0.0039,0.0034,0.0035,-0.0015,-0.0022,0.0012,0.001,-0.006,-0.0068,-0.0074,-0.0075,-0.0107,-0.0109,-0.0111,-0.017,-0.017,-0.017,0,0,0,0,0,0,0.0092,0.0091,0.0069,0.0072,0.0068,0.0039,0.004,0.0034,0.0027,-0.0018,-0.0027,0.0011,-0.0061,-0.007,-0.0091,-0.0079,-0.0111,-0.0113,-0.017,-0.017,-0.017,-0.0084,0,0,0,0,0,0,0.0093,0.0092,0.0095,0.0073,0.0068,0.0069,0.0041,0.0034,0.0027,0.0024,-0.0022,-0.003,-0.0062,-0.0086,-0.0094,-0.0084,-0.0116,-0.017,-0.017,-0.017,-0.0087,-0.0081,-0.0075,0,0,0,0,0,0.0094,0.0108,0.0095,0.0094,0.0074,0.0069,0.0065,0.0042,0.0028,0.0032,-0.0,-0.0029,-0.009,-0.0088,-0.0097,-0.0088,-0.0171,-0.017,-0.017,-0.0089,-0.0082,-0.0075,0,0,0,0,0,0,0.0117,0.0105,0.009,0.0099,0.0088,0.0063,0.0065,0.0049,0.0027,0.0022,-0.0023,-0.0033,-0.0048,-0.0082,-0.0078,-0.0106,-0.0137,-0.0138,-0.0072,-0.0066,-0.006,-0.0038,-0.0118,0,0,0,0,0,0.0124,0.0131,0.0112,0.012,0.0116,0.009,0.0085,0.0071,0.005,0.004,0.0008,-0.0028,-0.0054,-0.0069,-0.0099,-0.0111,-0.0142,-0.0114,-0.0108,-0.0103,-0.0093,-0.0125,-0.0121,-0.0168,-0.0168,-0.0168,0,0,0.0134,0.0129,0.0132,0.0125,0.0112,0.0126,0.0086,0.0086,0.0097,0.0033,0.0035,-0.0007,-0.0053,-0.0066,-0.0076,-0.0091,-0.0107,-0.0102,-0.0097,-0.009,-0.0124,-0.012,-0.0115,-0.0168,-0.0168,-0.0168,0,0,0.017,0.0155,0.0175,0.0174,0.0165,0.0152,0.0157,0.0136,0.0124,0.0117,0.0075,0.0043,0.0003,-0.0026,-0.0046,-0.0028,-0.0074,-0.0042,0.0006,-0.0026,-0.0022,-0.0019,-0.0051,-0.0051,-0.004,-0.004,-0.0039,0,0.0183,0.021,0.0181,0.0204,0.0215,0.0171,0.0203,0.0187,0.0163,0.0159,0.0129,0.0068,0.0024,0.0012,0.0014,-0.0013,-0.0039,-0.0013,-0.0016,-0.0014,-0.0012,-0.0046,-0.0047,-0.0035,-0.0036,-0.0036,-0.0037,0,0.0237,0.026,0.0274,0.0292,0.0295,0.0316,0.0295,0.0291,0.0266,0.0246,0.0221,0.0155,0.0121,0.0095,0.0059,0.0051,0.0025,-0.0002,-0.0027,-0.0002,-0.004,-0.0043,-0.0029,-0.0031,-0.0032,-0.0033,0,0,0.0266,0.0306,0.0312,0.0348,0.0348,0.0364,0.0376,0.0381,0.0399,0.0343,0.0358,0.0285,0.0239,0.0211,0.0154,0.0115,0.0097,0.0067,0.0063,0.0047,0.0028,-0.0015,-0.0024,0.0071,0.0071,0.0071,-0.0003,0,0.0321,0.0398,0.0395,0.0469,0.051,0.0484,0.0505,0.0497,0.0472,0.0471,0.0388,0.0371,0.0287,0.027,0.022,0.0138,0.0092,0.0119,-0.0005,-0.0008,-0.0041,-0.0027,-0.0,-0.0065,-0.0006,-0.0007,-0.0007,0,0.0376,0.0427,0.051,0.0578,0.0591,0.062,0.0652,0.0668,0.0639,0.0619,0.0573,0.0505,0.0445,0.0364,0.0233,0.0256,0.0151,0.007,0.0065,-0.0006,-0.0058,-0.0084,-0.0074,-0.0013,-0.0012,-0.0012,-0.0011,0,0.0426,0.0509,0.0586,0.0608,0.0666,0.0694,0.0718,0.0709,0.0746,0.0713,0.073,0.0627,0.0602,0.0454,0.0281,0.0261,0.0131,0.0084,-0.006,-0.0065,-0.0081,-0.0087,-0.0018,-0.0018,-0.0017,-0.0017,-0.0017,0,0.049,0.0553,0.0619,0.0663,0.0761,0.0765,0.0849,0.0849,0.087,0.0935,0.0815,0.0834,0.0624,0.0518,0.0332,0.0138,0.017,-0.0047,-0.0084,-0.0052,-0.0055,-0.0043,-0.0045,-0.002,-0.0019,-0.0019,-0.0018,0,0.0532,0.0571,0.0676,0.0758,0.0789,0.0858,0.0958,0.1016,0.1018,0.11,0.1099,0.101,0.0869,0.064,0.0412,0.0229,0.0027,-0.0059,-0.001,-0.0041,-0.0165,-0.0161,-0.0223,-0.0225,-0.0227,-0.0228,-0.0229,0,0.0564,0.0619,0.0748,0.0819,0.0861,0.0966,0.1038,0.1083,0.1162,0.1214,0.1266,0.1154,0.1088,0.073,0.0388,0.0057,0.0016,-0.0144,-0.0191,-0.0154,-0.0185,-0.0178,-0.0173,-0.018,-0.0181,-0.0181,-0.0182,0,0.0631,0.0671,0.0758,0.09,0.0999,0.113,0.1242,0.1335,0.1404,0.1465,0.1527,0.1472,0.1136,0.0803,0.0341,0.0111,-0.0093,-0.0169,-0.0128,-0.0135,-0.0121,-0.0148,-0.0143,-0.0187,-0.0187,-0.0186,-0.0186,-0.0186,0.068,0.0752,0.0858,0.0995,0.1118,0.1275,0.1399,0.1525,0.1663,0.1768,0.1711,0.1641,0.1257,0.0663,0.0269,-0.014,-0.0131,-0.0282,-0.0277,-0.0272,-0.0256,-0.0246,-0.0333,-0.0334,-0.0334,-0.0334,-0.0334,0,0.0747,0.0821,0.0947,0.112,0.1265,0.1316,0.1523,0.1639,0.1818,0.1887,0.1915,0.1543,0.1153,0.0726,0.0115,-0.0263,-0.0281,-0.0377,-0.0312,-0.0304,-0.0298,-0.0282,-0.0368,-0.0369,-0.037,-0.0371,0,0,0.0785,0.0901,0.0962,0.1204,0.1333,0.1542,0.1669,0.1821,0.1921,0.1975,0.1938,0.1818,0.1292,0.0846,0.0334,-0.0008,-0.0066,-0.0079,-0.0015,0.0129,0.014,-0.0212,-0.0176,0,0,0,0,0]}],[{"header":{"parameterUnit":"m.s-1","parameterCategory":2,"la1":30.2991,"la2":30.254,"lo1":-89.0895,"lo2":-89.0444,"dy":0.0017,"dx":0.0017,"nx":28,"ny":28,"refTime":"2025-08-06T21:00:00:Z","depth":"4","parameterNumber":2,"parameterNumberName":"U-component_of_CURRENTS"},"data":[0,0,0,0,0,0,0,0,0,0,0,0,0,0,0,0,0,0,0,0,0,0,0,0,0,0,0,0,0,0,0,0,0,0,0,0,0,0,0,0,0,0,0,0,0,0,0,0,0,0,0,0,0,0,0,0,0,0,0.1738,0.1739,0,0.1819,0.182,0.1821,0.1898,0.1899,0.19,0.19,0.1975,0.1976,0.1977,0,0,0,0,0,0,0,0,0,0,0,0,0,0.1683,0.1684,0.1738,0.1739,0.174,0.1818,0.182,0.1821,0.1898,0.1899,0.19,0.1901,0.1974,0.1976,0.1977,0,0,0,0,0,0,0,0,0,0,0,0,0,0.1731,0.1684,0.1738,0.1786,0.1791,0.1818,0.182,0.1821,0.1898,0.1899,0.19,0.1901,0.1974,0.1976,0.1977,0.1964,0,0,0.1983,0.1984,0,0,0,0,0,0,0,0,0.1728,0.1733,0.1778,0.1783,0.1788,0.1848,0.1828,0.1868,0.1897,0.1859,0.19,0.1902,0.193,0.1935,0.195,0.1967,0.1971,0.1983,0.1984,0.1985,0.1986,0,0,0,0,0,0,0,0.1725,0.173,0.1772,0.1779,0.1785,0.1815,0.1823,0.1836,0.1888,0.1863,0.1868,0.1874,0.1933,0.1948,0.1952,0.1972,0.1983,0.1985,0.1986,0.1987,0.209,0.2091,0,0,0,0,0,0,0.1708,0.1727,0.1769,0.1774,0.1759,0.1815,0.1824,0.1829,0.1888,0.1898,0.1872,0.1877,0.1945,0.195,0.1955,0.2033,0.1985,0.1987,0.1988,0.2088,0.209,0.2092,0,0,0,0,0,0,0.1707,0.1711,0.1766,0.1751,0.176,0.1814,0.1819,0.183,0.1887,0.1895,0.1906,0.1923,0.1946,0.1953,0.2009,0.2033,0.1988,0.1989,0.2086,0.2089,0.2091,0.2129,0,0,0,0,0,0,0.1705,0.171,0.1734,0.175,0.176,0.1802,0.1818,0.1831,0.1885,0.1893,0.1941,0.1947,0.1947,0.2006,0.2011,0.2034,0.1991,0.2084,0.2087,0.209,0.2126,0.2133,0.2139,0,0,0,0,0,0.1703,0.1721,0.1734,0.1741,0.1782,0.1802,0.1811,0.1854,0.1887,0.1912,0.1956,0.1948,0.2029,0.2009,0.2014,0.2039,0.2082,0.2086,0.209,0.2123,0.2131,0.2138,0,0,0,0,0,0,0.1711,0.173,0.1746,0.1771,0.1794,0.1815,0.1848,0.1877,0.1933,0.1954,0.1971,0.1979,0.2029,0.2036,0.2015,0.2079,0.2053,0.2058,0.2077,0.2085,0.2091,0.2101,0.1992,0,0,0,0,0,0.172,0.174,0.1758,0.1781,0.1795,0.1831,0.1856,0.1882,0.1919,0.1948,0.1981,0.2018,0.2041,0.2068,0.2082,0.2125,0.2147,0.2145,0.2152,0.2157,0.217,0.2232,0.2245,0.2104,0.2104,0.2104,0,0,0.1728,0.1742,0.1756,0.1785,0.181,0.1832,0.1851,0.1893,0.193,0.1944,0.2021,0.2037,0.2056,0.2098,0.2122,0.2115,0.2209,0.2162,0.2166,0.2176,0.2237,0.2251,0.2263,0.2106,0.2106,0.2106,0,0,0.1728,0.1768,0.1777,0.1802,0.184,0.1861,0.1881,0.1924,0.1971,0.2033,0.2047,0.2091,0.214,0.2153,0.2166,0.222,0.2232,0.2227,0.2278,0.2338,0.235,0.2361,0.2405,0.2419,0.2241,0.2241,0.2241,0,0.1746,0.1754,0.1785,0.18,0.1833,0.1877,0.1902,0.1946,0.2009,0.2051,0.2068,0.2153,0.2164,0.2211,0.2233,0.2233,0.2272,0.2243,0.2346,0.2358,0.2368,0.241,0.2426,0.2243,0.2243,0.2242,0.2242,0,0.1732,0.1766,0.1777,0.1812,0.1853,0.1883,0.1938,0.1999,0.2064,0.2103,0.2185,0.2211,0.2268,0.227,0.2273,0.2347,0.2351,0.2337,0.2324,0.2385,0.2425,0.2441,0.2246,0.2245,0.2245,0.2244,0,0,0.1712,0.1758,0.1771,0.1797,0.187,0.1895,0.1976,0.2048,0.2114,0.2183,0.2266,0.2307,0.234,0.2357,0.2364,0.2415,0.2514,0.2422,0.2424,0.2461,0.2656,0.2486,0.2487,0.2531,0.2534,0.2536,0.2653,0,0.1701,0.1728,0.1764,0.1818,0.1843,0.1926,0.1995,0.2077,0.2162,0.2253,0.2306,0.2379,0.2368,0.2411,0.2461,0.2506,0.2558,0.2483,0.2596,0.2599,0.2437,0.2499,0.2546,0.2664,0.2668,0.2671,0.2672,0,0.168,0.1705,0.1749,0.1832,0.1855,0.1908,0.2045,0.2109,0.224,0.2312,0.2402,0.245,0.2544,0.2523,0.2648,0.2612,0.2645,0.2667,0.2672,0.2512,0.2458,0.2594,0.27,0.2698,0.2696,0.2694,0.2692,0,0.1643,0.1705,0.1745,0.1774,0.1866,0.1933,0.2005,0.2139,0.2214,0.2366,0.2447,0.2547,0.2631,0.2696,0.2761,0.273,0.2887,0.2843,0.2715,0.2704,0.2804,0.2791,0.2926,0.2926,0.2926,0.2926,0.2925,0,0.1607,0.1641,0.174,0.1758,0.1831,0.1923,0.2031,0.212,0.2264,0.2346,0.2481,0.2561,0.2688,0.2785,0.2812,0.2819,0.2939,0.2736,0.2727,0.2817,0.2804,0.2815,0.28,0.293,0.2929,0.2928,0.2927,0,0.1539,0.1601,0.1646,0.1761,0.181,0.1868,0.203,0.2096,0.2262,0.2381,0.2441,0.262,0.2746,0.2841,0.2955,0.2875,0.2899,0.2866,0.2976,0.2968,0.2661,0.2647,0.2727,0.2722,0.2718,0.2714,0.2711,0,0.149,0.1514,0.1637,0.1668,0.1722,0.1834,0.1905,0.2077,0.2151,0.2388,0.2425,0.2618,0.2715,0.2754,0.2856,0.29,0.2858,0.2844,0.2721,0.2659,0.2644,0.2636,0.2629,0.2705,0.2703,0.2702,0.2701,0,0.1395,0.1464,0.1502,0.1575,0.1651,0.1717,0.1841,0.1895,0.2089,0.2261,0.2362,0.2436,0.257,0.2649,0.2713,0.2729,0.2836,0.2799,0.2806,0.2691,0.2634,0.262,0.2618,0.2687,0.2689,0.269,0.2691,0,0.1334,0.1341,0.1411,0.1459,0.1533,0.1562,0.1659,0.1761,0.1865,0.2133,0.2162,0.2369,0.254,0.2564,0.2622,0.2632,0.2575,0.2463,0.2486,0.2504,0.2374,0.2265,0.2209,0,0,0,0,0,0.1257,0.1251,0.1284,0.1317,0.1378,0.1428,0.1582,0.1691,0.191,0.1921,0.2036,0.2149,0.2245,0.2357,0.2323,0.2514,0.2578,0.246,0.2458,0.2607,0.2623,0.2489,0,0,0,0,0,0,0.1209,0.1227,0.1235,0.1178,0.1183,0.124,0.134,0.1493,0.1528,0.1758,0.1836,0.1993,0.2135,0.2236,0.227,0.2301,0.225,0.2589,0.2582,0.2597,0.2612,0.2626,0.2494,0,0,0,0,0]},{"header":{"parameterUnit":"m.s-1","parameterCategory":2,"la1":30.2991,"la2":30.254,"lo1":-89.0895,"lo2":-89.0444,"dy":0.0017,"dx":0.0017,"nx":28,"ny":28,"refTime":"2025-08-06T21:00:00:Z","depth":"4","parameterNumber":3,"parameterNumberName":"V-component_of_CURRENTS"},"data":[0,0,0,0,0,0,0,0,0,0,0,0,0,0,0,0,0,0,0,0,0,0,0,0,0,0,0,0,0,0,0,0,0,0,0,0,0,0,0,0,0,0,0,0,0,0,0,0,0,0,0,0,0,0,0,0,0,0,0.0071,0.0071,0,0.0045,0.0045,0.0045,0.0015,0.0014,0.0014,0.0014,-0.0044,-0.0045,-0.0046,0,0,0,0,0,0,0,0,0,0,0,0,0,0.007,0.007,0.0071,0.0071,0.0071,0.0046,0.0045,0.0044,0.0015,0.0014,0.0014,0.0014,-0.0043,-0.0045,-0.0046,0,0,0,0,0,0,0,0,0,0,0,0,0,0.0058,0.007,0.0071,0.0055,0.0053,0.0046,0.0045,0.0044,0.0015,0.0014,0.0014,0.0014,-0.0043,-0.0044,-0.0046,-0.005,0,0,-0.0052,-0.0053,0,0,0,0,0,0,0,0,0.0059,0.0058,0.0057,0.0056,0.0054,0.0035,0.0024,0.0012,0.0015,0.0027,0.0014,0.0013,-0.0019,-0.0023,-0.0029,-0.0052,-0.0055,-0.0052,-0.0053,-0.0054,-0.0055,0,0,0,0,0,0,0,0.006,0.0059,0.0059,0.0057,0.0055,0.004,0.0038,0.0021,0.0005,0.0026,0.0024,0.0025,-0.002,-0.0027,-0.003,-0.0056,-0.0052,-0.0054,-0.0055,-0.0056,-0.0086,-0.0086,0,0,0,0,0,0,0.0069,0.006,0.006,0.0059,0.0058,0.004,0.0038,0.004,0.0006,0.0001,0.0025,0.0023,-0.0023,-0.0028,-0.0033,-0.0023,-0.0054,-0.0056,-0.0057,-0.0087,-0.0086,-0.0086,0,0,0,0,0,0,0.0069,0.0069,0.0061,0.006,0.0058,0.0041,0.0043,0.0039,0.0035,0.0006,-0.0,0.0025,-0.0024,-0.003,-0.0041,-0.0026,-0.0057,-0.0059,-0.0087,-0.0087,-0.0086,-0.0014,0,0,0,0,0,0,0.0069,0.0069,0.0072,0.0061,0.0059,0.0065,0.0044,0.0039,0.0037,0.0034,0.0004,-0.0002,-0.0025,-0.0038,-0.0043,-0.0029,-0.006,-0.0087,-0.0087,-0.0086,-0.0017,-0.0011,-0.0006,0,0,0,0,0,0.0069,0.0082,0.0073,0.0072,0.0064,0.0066,0.0064,0.0048,0.0037,0.0041,0.002,-0.0001,-0.0038,-0.0039,-0.0045,-0.0032,-0.0088,-0.0087,-0.0086,-0.0019,-0.0012,-0.0006,0,0,0,0,0,0,0.0084,0.008,0.0069,0.008,0.0075,0.0062,0.0065,0.0054,0.004,0.0036,0.0005,-0.0002,-0.0007,-0.0031,-0.0032,-0.004,-0.0067,-0.0067,-0.0014,-0.0008,-0.0003,0.0004,-0.0062,0,0,0,0,0,0.0089,0.0096,0.0087,0.0096,0.0095,0.008,0.0078,0.0069,0.0057,0.005,0.0029,0.0006,-0.0009,-0.0017,-0.0036,-0.0039,-0.008,-0.0036,-0.003,-0.0026,-0.0025,-0.0074,-0.0073,-0.0083,-0.0083,-0.0083,0,0,0.0096,0.0096,0.0099,0.0099,0.0093,0.0108,0.0078,0.0082,0.0095,0.0046,0.0053,0.0024,-0.0006,-0.0008,-0.0013,-0.0025,-0.0044,-0.0025,-0.002,-0.0023,-0.0073,-0.0072,-0.0071,-0.0083,-0.0083,-0.0083,0,0,0.0127,0.0116,0.0136,0.0139,0.0138,0.0129,0.0134,0.0123,0.0117,0.0118,0.0087,0.0067,0.0046,0.0027,0.0015,0.0036,-0.0015,0.003,0.0064,0.0018,0.0018,0.0018,-0.0031,-0.0036,0.0034,0.0034,0.0034,0,0.0136,0.0162,0.0142,0.0166,0.0176,0.0145,0.0173,0.0165,0.0152,0.0147,0.0129,0.0088,0.0063,0.0056,0.0064,0.0049,0.001,0.0047,0.0025,0.0024,0.0022,-0.0027,-0.0034,0.0037,0.0037,0.0037,0.0036,0,0.0183,0.0206,0.022,0.0239,0.0244,0.0263,0.0252,0.0251,0.0234,0.0218,0.0201,0.0159,0.0133,0.0123,0.0102,0.0086,0.0057,0.0038,0.0012,0.0028,-0.0026,-0.0034,0.0042,0.0041,0.004,0.0039,0,0,0.0202,0.0245,0.0251,0.0279,0.0286,0.0299,0.0315,0.0318,0.0326,0.0292,0.0292,0.0256,0.0217,0.0199,0.0163,0.0122,0.0081,0.0081,0.0077,0.0038,-0.0028,-0.0037,-0.0047,0.0057,0.0056,0.0055,-0.0061,0,0.0246,0.0311,0.0317,0.0378,0.0409,0.0394,0.0413,0.0406,0.0385,0.0373,0.0313,0.0299,0.0252,0.024,0.0191,0.011,0.0063,0.0114,-0.0043,-0.0048,-0.0053,-0.0055,0.0052,-0.0067,-0.0069,-0.0071,-0.0072,0,0.0289,0.033,0.04,0.0453,0.0464,0.0493,0.0509,0.0524,0.0492,0.047,0.0428,0.0378,0.032,0.0275,0.0135,0.0169,0.0078,0.0006,-0.0,-0.0039,-0.0071,-0.009,-0.0087,-0.0086,-0.0085,-0.0084,-0.0083,0,0.0313,0.0387,0.0447,0.0467,0.0516,0.0543,0.0563,0.0552,0.0572,0.0531,0.0527,0.0436,0.0398,0.0272,0.0128,0.0129,-0.004,-0.0057,-0.0154,-0.0156,-0.0146,-0.0145,-0.0162,-0.0161,-0.0161,-0.0161,-0.0161,0,0.0355,0.0406,0.047,0.0504,0.0576,0.0589,0.0648,0.0643,0.0646,0.067,0.0583,0.0567,0.0395,0.0282,0.014,-0.0033,-0.0034,-0.0153,-0.0187,-0.0113,-0.0107,-0.0152,-0.0149,-0.0165,-0.0164,-0.0163,-0.0163,0,0.0374,0.0415,0.0494,0.0566,0.0595,0.0645,0.0724,0.0762,0.0748,0.0774,0.0768,0.0662,0.051,0.0328,0.0115,-0.0004,-0.0174,-0.0236,-0.0145,-0.0171,-0.0264,-0.0257,-0.0355,-0.0356,-0.0357,-0.0358,-0.0359,0,0.0392,0.0435,0.054,0.0598,0.064,0.0722,0.0781,0.0808,0.0851,0.0832,0.0845,0.0716,0.0621,0.0317,0.0112,-0.0169,-0.0207,-0.0301,-0.0283,-0.0261,-0.0284,-0.0275,-0.0266,-0.036,-0.0361,-0.0361,-0.0361,0,0.0426,0.0463,0.0528,0.0646,0.073,0.0829,0.0913,0.0952,0.0978,0.0968,0.0911,0.0752,0.0573,0.0327,0.0105,-0.0094,-0.0243,-0.0313,-0.0312,-0.0296,-0.0269,-0.0289,-0.0279,-0.0365,-0.0364,-0.0364,-0.0364,0,0.045,0.0499,0.0587,0.0691,0.0799,0.0904,0.095,0.1002,0.1038,0.1014,0.0988,0.079,0.0671,0.0364,0.016,-0.004,-0.009,-0.0156,-0.0164,-0.0162,-0.0074,-0.001,-0.0057,0,0,0,0,0,0.0476,0.0535,0.063,0.0748,0.0855,0.0927,0.1025,0.1061,0.1085,0.1061,0.103,0.0864,0.0554,0.0414,0.0215,0.013,-0.0133,-0.0113,-0.0213,-0.0385,-0.0381,-0.0311,0,0,0,0,0,0,0.0497,0.0582,0.0628,0.0773,0.0864,0.0992,0.1063,0.1086,0.1072,0.1056,0.0898,0.0809,0.0511,0.0673,0.021,0.0147,0.0054,-0.0259,-0.0264,-0.0388,-0.0384,-0.038,-0.0307,0,0,0,0,0]}]]